Location: Newark
(49.8969°N, 3.3422°E)
Time: 13:37:38
(UTC+00:00)

Explorer 7 - Pass Details

Date: 02 February 2020
Orbit: 485 x 679 km, 50.3° (Epoch: 28 February)

Event Time Altitude Azimuth Distance (km) Brightness Sun altitude
Rises 00:50:02 0° 285° (WNW) 2,554 - -55.6°
Reaches altitude 10° 00:52:18 10° 277° (W) 1,669 - -55.5°
Maximum altitude 00:55:46 37° 209° (SSW) 772 - -55.3°
Drops below altitude 10° 00:59:18 10° 141° (SE) 1,690 - -55.0°
Sets 01:01:36 0° 133° (SE) 2,591 - -54.9°
